Location: Bennemühlen
(52.5740°N, 9.7135°E)
Time: 10:06:33
(UTC+00:00)

BlueWalker 3 - Visible Passes

Search period start: 21 January 2026 00:00
Search period end: 31 January 2026 00:00
Orbit: 451 x 463 km, 53.2° (Epoch: 20 January)

Date Brightness Start Highest point End Pass type
(mag) Time Alt. Az. Time Alt. Az. Time Alt. Az.
21 Jan 4.1 17:24:57 10° SSE 17:25:58 11° SE 17:25:58 11° SE visible
21 Jan 4.7 18:59:24 10° SW 18:59:43 12° SW 18:59:43 12° SW visible
22 Jan 3.5 18:24:06 10° SW 18:25:59 25° SSW 18:25:59 25° SSW visible
23 Jan 2.7 17:48:50 10° SSW 17:52:01 31° SSE 17:52:09 31° SE visible
23 Jan 5.0 19:25:41 10° WSW 19:25:53 11° WSW 19:25:53 11° WSW visible
24 Jan 3.1 17:13:35 10° SSW 17:16:37 26° SE 17:18:14 19° ESE visible
24 Jan 3.7 18:50:12 10° WSW 18:51:58 27° WSW 18:51:58 27° WSW visible
25 Jan 3.4 16:38:23 10° SSW 16:41:11 22° SE 16:44:00 10° E visible
25 Jan 1.9 18:14:42 10° WSW 18:17:58 66° SSW 18:17:58 66° SSW visible
26 Jan 1.8 17:39:12 10° WSW 17:42:44 63° SSE 17:43:54 37° E visible
26 Jan 4.6 19:16:38 10° W 19:17:38 18° W 19:17:38 18° W visible
27 Jan 2.1 17:03:41 10° SW 17:07:11 54° SSE 17:09:47 17° E visible
27 Jan 2.9 18:41:03 10° W 18:43:31 41° W 18:43:31 41° W visible
28 Jan 1.6 18:05:26 10° W 18:09:00 82° N 18:09:21 70° ENE visible
28 Jan 5.2 19:42:58 10° WNW 19:43:04 11° WNW 19:43:04 11° WNW visible
29 Jan 1.7 17:29:46 10° W 17:33:22 86° N 17:35:09 28° ENE visible
29 Jan 4.1 19:07:20 10° W 19:08:53 24° W 19:08:53 24° W visible
30 Jan 1.7 16:54:07 10° WSW 16:57:42 89° SSE 17:00:56 12° E visible
30 Jan 2.2 18:31:40 10° W 18:34:39 60° WNW 18:34:39 60° WNW visible
